Starlink 35498

operational
NORAD ID: 67017 Int'l Des: 2025-293 Owner: SPXS Country: US Constellation: starlink
LEOCIRCULAR

About Starlink 35498

Description loading...

Live Position

Loading 3D Globe...

Upcoming Passes

Altitude History

Altitude vs Time

uPlot chart will show altitude changes over time

Two-Line Element Set

1 67017U 25293Q 26013.25002315 -.02093568 00000-0 -47752-1 0 9993
2 67017 69.9998 235.1680 0002867 273.2804 316.8865 15.46253036 5341
Epoch: Jan 13, 2026 • Age: 9 hours

Current Status

Altitude 443.2 km
Velocity 7.65 km/s
Sub-Earth Point 56.21°N, 45.77°E
Launch Date Dec 10, 2025
Age 34 days
Type internet

Technical Details

Classification Payload
Mass 575.00 kg
Dry Mass 530.00 kg
Total Mass 575.00 kg
Length 0.30 m
Diameter 4.10 m
Span 29.00 m
Shape Box + pan
Manufacturer SPXS
Bus Type Starlink V2MO
Phase Status In Orbit
Owner/State SPXS/US

Large Constellations

Loading constellations...